TimePST,TemperatureF,Dew PointF,Humidity,Sea Level PressureIn,VisibilityMPH,Wind Direction,Wind SpeedMPH,Gust SpeedMPH,PrecipitationIn,Events,Conditions,WindDirDegrees,DateUTC
12:53 AM,50.0,14.0,24,30.14,10.0,East,4.6,-,N/A,,Clear,80,2013-12-30 08:53:00
1:53 AM,48.9,15.1,26,30.15,10.0,ESE,5.8,-,N/A,,Clear,110,2013-12-30 09:53:00
2:53 AM,48.9,14.0,25,30.16,10.0,ENE,5.8,-,N/A,,Clear,70,2013-12-30 10:53:00
3:53 AM,54.0,9.0,17,30.17,10.0,NE,3.5,-,N/A,,Clear,40,2013-12-30 11:53:00
4:53 AM,43.0,15.1,32,30.18,10.0,ESE,5.8,-,N/A,,Clear,110,2013-12-30 12:53:00
5:53 AM,45.0,16.0,31,30.21,10.0,SE,5.8,-,N/A,,Clear,130,2013-12-30 13:53:00
6:53 AM,42.1,15.1,34,30.23,10.0,ESE,6.9,-,N/A,,Clear,110,2013-12-30 14:53:00
7:53 AM,51.1,18.0,27,30.24,10.0,SE,8.1,-,N/A,,Clear,130,2013-12-30 15:53:00
8:53 AM,57.9,15.1,19,30.24,10.0,East,3.5,-,N/A,,Clear,100,2013-12-30 16:53:00
9:53 AM,64.9,12.9,13,30.25,10.0,Calm,Calm,-,N/A,,Clear,0,2013-12-30 17:53:00
10:53 AM,70.0,10.9,10,30.23,10.0,Calm,Calm,-,N/A,,Clear,0,2013-12-30 18:53:00
11:53 AM,73.0,6.1,7,30.19,10.0,NW,3.5,-,N/A,,Clear,310,2013-12-30 19:53:00
12:53 PM,73.9,7.0,8,30.17,10.0,Variable,3.5,-,N/A,,Clear,0,2013-12-30 20:53:00
1:53 PM,72.0,17.1,12,30.16,10.0,West,10.4,-,N/A,,Clear,280,2013-12-30 21:53:00
2:53 PM,71.1,17.1,13,30.15,10.0,WNW,8.1,-,N/A,,Clear,290,2013-12-30 22:53:00
3:53 PM,69.1,25.0,19,30.15,10.0,WNW,6.9,-,N/A,,Clear,290,2013-12-30 23:53:00
4:53 PM,64.0,24.1,22,30.17,10.0,WNW,4.6,-,N/A,,Clear,290,2013-12-31 00:53:00
5:53 PM,61.0,23.0,23,30.19,10.0,WNW,4.6,-,N/A,,Clear,290,2013-12-31 01:53:00
6:53 PM,60.1,21.0,22,30.20,10.0,Calm,Calm,-,N/A,,Clear,0,2013-12-31 02:53:00
7:53 PM,55.9,17.1,22,30.22,10.0,Calm,Calm,-,N/A,,Clear,0,2013-12-31 03:53:00
8:53 PM,55.9,26.1,32,30.21,10.0,SE,4.6,-,N/A,,Clear,140,2013-12-31 04:53:00
9:53 PM,48.9,26.1,41,30.21,10.0,ESE,5.8,-,N/A,,Clear,120,2013-12-31 05:53:00
10:53 PM,48.9,23.0,36,30.20,10.0,SSE,5.8,-,N/A,,Clear,150,2013-12-31 06:53:00
11:53 PM,46.9,21.9,37,30.20,10.0,SE,6.9,-,N/A,,Clear,130,2013-12-31 07:53:00